Time,TemperatureF,DewpointF,PressureIn,WindDirection,WindDirectionDegrees,WindSpeedMPH,WindSpeedGustMPH,Humidity,HourlyPrecipIn,Conditions,Clouds,dailyrainin,SoftwareType,DateUTC
2013-08-16 00:00:00,57.7,50.6,29.14,WNW,292,0.0,0.0,77,0.00,,---,0.00,VWS V14.01,2013-08-16 05:00:00,
2013-08-16 00:05:00,57.7,50.6,29.14,WNW,292,0.0,0.0,77,0.00,,---,0.00,VWS V14.01,2013-08-16 05:05:00,
2013-08-16 00:10:00,57.7,50.6,29.14,WNW,292,0.0,0.0,77,0.00,,---,0.00,VWS V14.01,2013-08-16 05:10:00,
2013-08-16 00:15:00,58.1,50.9,29.14,WNW,292,0.0,0.0,77,0.00,,---,0.00,VWS V14.01,2013-08-16 05:15:00,
2013-08-16 00:20:00,58.5,50.9,29.14,WNW,292,0.0,0.0,76,0.00,,---,0.00,VWS V14.01,2013-08-16 05:20:00,
2013-08-16 00:25:00,58.5,50.2,29.14,WNW,292,0.0,0.0,74,0.00,,---,0.00,VWS V14.01,2013-08-16 05:25:00,
2013-08-16 00:30:00,58.5,50.2,29.14,WNW,292,0.0,0.0,74,0.00,,---,0.00,VWS V14.01,2013-08-16 05:30:00,
2013-08-16 00:35:00,58.5,50.2,29.14,WNW,292,0.0,0.0,74,0.00,,---,0.00,VWS V14.01,2013-08-16 05:35:00,
2013-08-16 00:40:00,58.6,50.4,29.14,WNW,292,0.0,0.0,74,0.00,,---,0.00,VWS V14.01,2013-08-16 05:40:00,
2013-08-16 00:45:00,59.2,51.6,29.14,WNW,292,0.0,0.0,76,0.00,,---,0.00,VWS V14.01,2013-08-16 05:45:00,
2013-08-16 00:50:00,59.2,51.6,29.14,WNW,292,0.0,0.0,76,0.00,,---,0.00,VWS V14.01,2013-08-16 05:50:00,
2013-08-16 00:55:00,59.0,51.5,29.14,WNW,292,0.0,0.0,76,0.00,,---,0.00,VWS V14.01,2013-08-16 05:55:00,
2013-08-16 01:00:00,59.2,51.6,29.14,WNW,292,0.0,0.0,76,0.00,,---,0.00,VWS V14.01,2013-08-16 06:00:00,
2013-08-16 01:05:00,59.2,51.3,29.14,WNW,292,0.0,0.0,75,0.00,,---,0.00,VWS V14.01,2013-08-16 06:05:00,
2013-08-16 01:10:00,59.2,50.9,29.14,WNW,292,0.0,0.0,74,0.00,,---,0.00,VWS V14.01,2013-08-16 06:10:00,
2013-08-16 01:15:00,59.2,50.9,29.14,WNW,292,0.0,0.0,74,0.00,,---,0.00,VWS V14.01,2013-08-16 06:15:00,
2013-08-16 01:20:00,59.0,51.1,29.14,WNW,292,0.0,0.0,75,0.00,,---,0.00,VWS V14.01,2013-08-16 06:20:00,
2013-08-16 01:25:00,59.0,51.5,29.14,WNW,292,0.0,0.0,76,0.00,,---,0.00,VWS V14.01,2013-08-16 06:25:00,
2013-08-16 01:30:00,58.8,51.6,29.14,WNW,292,0.0,0.0,77,0.00,,---,0.00,VWS V14.01,2013-08-16 06:30:00,
2013-08-16 01:35:00,58.6,51.5,29.14,WNW,292,0.0,0.0,77,0.00,,---,0.00,VWS V14.01,2013-08-16 06:35:00,
2013-08-16 01:40:00,58.5,51.3,29.14,WNW,292,0.0,0.0,77,0.00,,---,0.00,VWS V14.01,2013-08-16 06:40:00,
2013-08-16 01:45:00,58.1,50.9,29.14,WNW,292,0.0,0.0,77,0.00,,---,0.00,VWS V14.01,2013-08-16 06:45:00,
2013-08-16 01:50:00,57.9,50.8,29.14,WNW,292,0.0,0.0,77,0.00,,---,0.00,VWS V14.01,2013-08-16 06:50:00,
2013-08-16 01:55:00,57.7,50.6,29.14,WNW,292,0.0,0.0,77,0.00,,---,0.00,VWS V14.01,2013-08-16 06:55:00,
2013-08-16 02:01:00,57.4,50.6,29.14,WNW,292,0.0,0.0,78,0.00,,---,0.00,VWS V14.01,2013-08-16 07:01:00,
2013-08-16 02:06:00,57.2,50.4,29.14,WNW,292,0.0,0.0,78,0.00,,---,0.00,VWS V14.01,2013-08-16 07:06:00,
2013-08-16 02:11:00,57.0,50.9,29.14,WNW,292,0.0,0.0,80,0.00,,---,0.00,VWS V14.01,2013-08-16 07:11:00,
2013-08-16 02:16:00,56.8,51.1,29.14,WNW,292,0.0,0.0,81,0.00,,---,0.00,VWS V14.01,2013-08-16 07:16:00,
2013-08-16 02:21:00,56.7,50.9,29.14,WNW,292,0.0,0.0,81,0.00,,---,0.00,VWS V14.01,2013-08-16 07:21:00,
2013-08-16 02:26:00,56.7,51.2,29.14,WNW,292,0.0,0.0,82,0.00,,---,0.00,VWS V14.01,2013-08-16 07:26:00,
2013-08-16 02:31:00,56.7,51.2,29.14,WNW,292,0.0,0.0,82,0.00,,---,0.00,VWS V14.01,2013-08-16 07:31:00,
2013-08-16 02:36:00,56.5,51.1,29.14,WNW,292,0.0,0.0,82,0.00,,---,0.00,VWS V14.01,2013-08-16 07:36:00,
2013-08-16 02:41:00,56.3,50.9,29.14,WNW,292,0.0,0.0,82,0.00,,---,0.00,VWS V14.01,2013-08-16 07:41:00,
2013-08-16 02:46:00,56.1,51.0,29.14,WNW,292,0.0,0.0,83,0.00,,---,0.00,VWS V14.01,2013-08-16 07:46:00,
2013-08-16 02:51:00,56.1,51.4,29.14,WNW,292,0.0,0.0,84,0.00,,---,0.00,VWS V14.01,2013-08-16 07:51:00,
2013-08-16 02:56:00,56.5,51.7,29.14,WNW,292,0.0,0.0,84,0.00,,---,0.00,VWS V14.01,2013-08-16 07:56:00,
2013-08-16 03:01:00,56.8,52.1,29.14,WNW,292,0.0,0.0,84,0.00,,---,0.00,VWS V14.01,2013-08-16 08:01:00,
2013-08-16 03:06:00,56.8,52.1,29.14,WNW,292,0.0,0.0,84,0.00,,---,0.00,VWS V14.01,2013-08-16 08:06:00,
2013-08-16 03:11:00,56.7,51.9,29.14,WNW,292,0.0,0.0,84,0.00,,---,0.00,VWS V14.01,2013-08-16 08:11:00,
2013-08-16 03:16:00,56.7,51.9,29.14,WNW,292,0.0,0.0,84,0.00,,---,0.00,VWS V14.01,2013-08-16 08:16:00,
2013-08-16 03:21:00,56.8,52.4,29.14,WNW,292,0.0,0.0,85,0.00,,---,0.00,VWS V14.01,2013-08-16 08:21:00,
2013-08-16 03:26:00,56.7,52.2,29.14,WNW,292,0.0,0.0,85,0.00,,---,0.00,VWS V14.01,2013-08-16 08:26:00,
2013-08-16 03:31:00,56.7,52.2,29.14,WNW,292,0.0,0.0,85,0.00,,---,0.00,VWS V14.01,2013-08-16 08:31:00,
2013-08-16 03:36:00,56.7,52.5,29.14,WNW,292,0.0,0.0,86,0.00,,---,0.00,VWS V14.01,2013-08-16 08:36:00,
2013-08-16 03:41:00,56.8,53.0,29.14,WNW,292,0.0,0.0,87,0.00,,---,0.00,VWS V14.01,2013-08-16 08:41:00,
2013-08-16 03:46:00,56.7,52.8,29.14,WNW,292,0.0,0.0,87,0.00,,---,0.00,VWS V14.01,2013-08-16 08:46:00,
2013-08-16 03:51:00,56.5,52.7,29.14,WNW,292,0.0,0.0,87,0.00,,---,0.00,VWS V14.01,2013-08-16 08:51:00,
2013-08-16 03:56:00,56.5,52.7,29.14,WNW,292,0.0,0.0,87,0.00,,---,0.00,VWS V14.01,2013-08-16 08:56:00,
2013-08-16 04:01:00,56.1,52.6,29.14,WNW,292,0.0,0.0,88,0.00,,---,0.00,VWS V14.01,2013-08-16 09:01:00,
2013-08-16 04:06:00,55.9,52.4,29.14,WNW,292,0.0,0.0,88,0.00,,---,0.00,VWS V14.01,2013-08-16 09:06:00,
2013-08-16 04:11:00,55.6,52.1,29.14,WNW,292,0.0,0.0,88,0.00,,---,0.00,VWS V14.01,2013-08-16 09:11:00,
2013-08-16 04:16:00,55.2,51.7,29.14,WNW,292,0.0,0.0,88,0.00,,---,0.00,VWS V14.01,2013-08-16 09:16:00,
2013-08-16 04:21:00,54.9,51.7,29.14,WNW,292,0.0,0.0,89,0.00,,---,0.00,VWS V14.01,2013-08-16 09:21:00,
2013-08-16 04:26:00,54.9,52.0,29.14,WNW,292,0.0,0.0,90,0.00,,---,0.00,VWS V14.01,2013-08-16 09:26:00,
2013-08-16 04:31:00,54.7,52.4,29.14,WNW,292,0.0,0.0,92,0.00,,---,0.00,VWS V14.01,2013-08-16 09:31:00,
2013-08-16 04:36:00,54.7,52.7,29.14,WNW,292,0.0,0.0,93,0.00,,---,0.00,VWS V14.01,2013-08-16 09:36:00,
2013-08-16 04:41:00,54.5,52.5,29.14,WNW,292,0.0,0.0,93,0.00,,---,0.00,VWS V14.01,2013-08-16 09:41:00,
2013-08-16 04:46:00,54.3,52.3,29.14,WNW,292,0.0,0.0,93,0.00,,---,0.00,VWS V14.01,2013-08-16 09:46:00,
2013-08-16 04:51:00,54.1,52.5,29.14,WNW,292,0.0,0.0,94,0.00,,---,0.00,VWS V14.01,2013-08-16 09:51:00,
2013-08-16 04:56:00,54.1,52.5,29.14,WNW,292,0.0,0.0,94,0.00,,---,0.00,VWS V14.01,2013-08-16 09:56:00,
2013-08-16 05:01:00,53.8,52.1,29.14,WNW,292,0.0,0.0,94,0.00,,---,0.00,VWS V14.01,2013-08-16 10:01:00,
2013-08-16 05:06:00,53.4,52.0,29.14,WNW,292,0.0,0.0,95,0.00,,---,0.00,VWS V14.01,2013-08-16 10:06:00,
2013-08-16 05:11:00,53.1,51.7,29.14,WNW,292,0.0,0.0,95,0.00,,---,0.00,VWS V14.01,2013-08-16 10:11:00,
2013-08-16 05:16:00,53.1,51.7,29.14,WNW,292,0.0,0.0,95,0.00,,---,0.00,VWS V14.01,2013-08-16 10:16:00,
2013-08-16 05:21:00,53.1,51.7,29.14,WNW,292,0.0,0.0,95,0.00,,---,0.00,VWS V14.01,2013-08-16 10:21:00,
2013-08-16 05:26:00,53.1,52.0,29.14,WNW,292,0.0,0.0,96,0.00,,---,0.00,VWS V14.01,2013-08-16 10:26:00,
2013-08-16 05:31:00,53.1,52.2,29.14,WNW,292,0.0,0.0,97,0.00,,---,0.00,VWS V14.01,2013-08-16 10:31:00,
2013-08-16 05:36:00,53.1,52.2,29.14,WNW,292,0.0,0.0,97,0.00,,---,0.00,VWS V14.01,2013-08-16 10:36:00,
2013-08-16 05:41:00,53.1,52.2,29.14,WNW,292,0.0,0.0,97,0.00,,---,0.00,VWS V14.01,2013-08-16 10:41:00,
2013-08-16 05:46:00,52.9,52.3,29.14,WNW,292,0.0,0.0,98,0.00,,---,0.00,VWS V14.01,2013-08-16 10:46:00,
2013-08-16 05:51:00,53.1,52.5,29.14,WNW,292,0.0,0.0,98,0.00,,---,0.00,VWS V14.01,2013-08-16 10:51:00,
2013-08-16 05:56:00,53.1,52.5,29.14,WNW,292,0.0,0.0,98,0.00,,---,0.00,VWS V14.01,2013-08-16 10:56:00,
2013-08-16 06:01:00,53.1,52.5,29.14,WNW,292,0.0,0.0,98,0.00,,---,0.00,VWS V14.01,2013-08-16 11:01:00,
2013-08-16 06:06:00,53.1,52.5,29.14,WNW,292,0.0,0.0,98,0.00,,---,0.00,VWS V14.01,2013-08-16 11:06:00,
2013-08-16 06:11:00,53.1,52.5,29.17,WNW,292,0.0,0.0,98,0.00,,---,0.00,VWS V14.01,2013-08-16 11:11:00,
2013-08-16 06:16:00,53.1,52.5,29.17,WNW,292,0.0,0.0,98,0.00,,---,0.00,VWS V14.01,2013-08-16 11:16:00,
2013-08-16 06:21:00,53.1,52.5,29.17,WNW,292,0.0,0.0,98,0.00,,---,0.00,VWS V14.01,2013-08-16 11:21:00,
2013-08-16 06:26:00,52.9,52.3,29.17,WNW,292,0.0,0.0,98,0.00,,---,0.00,VWS V14.01,2013-08-16 11:26:00,
2013-08-16 06:31:00,52.9,52.3,29.17,WNW,292,0.0,0.0,98,0.00,,---,0.00,VWS V14.01,2013-08-16 11:31:00,
2013-08-16 06:36:00,53.1,52.5,29.17,WNW,292,0.0,0.0,98,0.00,,---,0.00,VWS V14.01,2013-08-16 11:36:00,
2013-08-16 06:41:00,53.2,52.7,29.17,WNW,292,0.0,0.0,98,0.00,,---,0.00,VWS V14.01,2013-08-16 11:41:00,
2013-08-16 06:46:00,53.6,53.0,29.17,WNW,292,0.0,0.0,98,0.00,,---,0.00,VWS V14.01,2013-08-16 11:46:00,
2013-08-16 06:51:00,54.5,54.0,29.17,WNW,292,0.0,0.0,98,0.00,,---,0.00,VWS V14.01,2013-08-16 11:51:00,
2013-08-16 06:56:00,55.0,54.5,29.17,WNW,292,0.0,0.0,98,0.00,,---,0.00,VWS V14.01,2013-08-16 11:56:00,
2013-08-16 07:01:00,55.9,55.1,29.17,WNW,292,0.0,0.0,97,0.00,,---,0.00,VWS V14.01,2013-08-16 12:01:00,
2013-08-16 07:06:00,56.8,55.1,29.17,WNW,292,0.0,0.0,94,0.00,,---,0.00,VWS V14.01,2013-08-16 12:06:00,
2013-08-16 07:11:00,57.2,54.6,29.17,WNW,292,0.0,0.0,91,0.00,,---,0.00,VWS V14.01,2013-08-16 12:11:00,
2013-08-16 07:16:00,58.1,54.3,29.17,WNW,292,0.0,0.0,87,0.00,,---,0.00,VWS V14.01,2013-08-16 12:16:00,
2013-08-16 07:21:00,58.8,54.0,29.17,WNW,292,0.0,0.0,84,0.00,,---,0.00,VWS V14.01,2013-08-16 12:21:00,
2013-08-16 07:26:00,59.7,54.2,29.17,WNW,292,0.0,0.0,82,0.00,,---,0.00,VWS V14.01,2013-08-16 12:26:00,
2013-08-16 07:31:00,60.1,53.6,29.17,WNW,292,0.0,0.0,79,0.00,,---,0.00,VWS V14.01,2013-08-16 12:31:00,
2013-08-16 07:36:00,60.3,52.7,29.17,WNW,292,0.0,0.0,76,0.00,,---,0.00,VWS V14.01,2013-08-16 12:36:00,
2013-08-16 07:41:00,61.0,53.0,29.17,WNW,292,0.0,0.0,75,0.00,,---,0.00,VWS V14.01,2013-08-16 12:41:00,
2013-08-16 07:46:00,61.3,53.0,29.17,WNW,292,0.0,0.0,74,0.00,,---,0.00,VWS V14.01,2013-08-16 12:46:00,
2013-08-16 07:51:00,61.9,53.1,29.17,WNW,292,0.0,0.0,73,0.00,,---,0.00,VWS V14.01,2013-08-16 12:51:00,
2013-08-16 07:56:00,62.6,53.5,29.17,WNW,292,0.0,0.0,72,0.00,,---,0.00,VWS V14.01,2013-08-16 12:56:00,
2013-08-16 08:01:00,63.1,53.6,29.17,WNW,292,0.0,3.1,71,0.00,,---,0.00,VWS V14.01,2013-08-16 13:01:00,
2013-08-16 08:06:00,63.5,53.9,29.17,WNW,292,3.1,3.6,71,0.00,,---,0.00,VWS V14.01,2013-08-16 13:06:00,
2013-08-16 08:11:00,63.7,54.1,29.17,WNW,292,3.6,3.6,71,0.00,,---,0.00,VWS V14.01,2013-08-16 13:11:00,
2013-08-16 08:16:00,64.0,54.1,29.17,WNW,292,2.2,2.7,70,0.00,,---,0.00,VWS V14.01,2013-08-16 13:16:00,
2013-08-16 08:21:00,64.2,54.2,29.17,WNW,292,0.0,2.7,70,0.00,,---,0.00,VWS V14.01,2013-08-16 13:21:00,
2013-08-16 08:26:00,64.9,54.5,29.17,WNW,292,0.0,0.0,69,0.00,,---,0.00,VWS V14.01,2013-08-16 13:26:00,
2013-08-16 08:31:00,65.1,54.3,29.17,WNW,292,3.1,3.6,68,0.00,,---,0.00,VWS V14.01,2013-08-16 13:31:00,
2013-08-16 08:36:00,65.7,54.8,29.17,WNW,292,3.1,3.1,68,0.00,,---,0.00,VWS V14.01,2013-08-16 13:36:00,
2013-08-16 08:41:00,66.2,54.9,29.17,WNW,292,3.1,3.1,67,0.00,,---,0.00,VWS V14.01,2013-08-16 13:41:00,
2013-08-16 08:46:00,66.7,55.0,29.17,WNW,292,3.1,3.1,66,0.00,,---,0.00,VWS V14.01,2013-08-16 13:46:00,
2013-08-16 08:51:00,67.1,55.0,29.17,WNW,292,3.1,3.1,65,0.00,,---,0.00,VWS V14.01,2013-08-16 13:51:00,
2013-08-16 08:56:00,67.3,54.3,29.17,WNW,292,2.7,2.7,63,0.00,,---,0.00,VWS V14.01,2013-08-16 13:56:00,
2013-08-16 09:01:00,68.2,55.1,29.17,WNW,292,2.2,3.6,63,0.00,,---,0.00,VWS V14.01,2013-08-16 14:01:00,
2013-08-16 09:06:00,68.5,54.6,29.17,WNW,292,2.7,4.0,61,0.00,,---,0.00,VWS V14.01,2013-08-16 14:06:00,
2013-08-16 09:11:00,69.3,55.2,29.17,WNW,292,3.6,3.6,61,0.00,,---,0.00,VWS V14.01,2013-08-16 14:11:00,
2013-08-16 09:16:00,69.3,55.2,29.17,WNW,292,3.1,3.1,61,0.00,,---,0.00,VWS V14.01,2013-08-16 14:16:00,
2013-08-16 09:21:00,69.3,54.8,29.17,WNW,292,4.0,4.0,60,0.00,,---,0.00,VWS V14.01,2013-08-16 14:21:00,
2013-08-16 09:26:00,69.8,54.8,29.17,WNW,292,3.1,3.1,59,0.00,,---,0.00,VWS V14.01,2013-08-16 14:26:00,
2013-08-16 09:31:00,70.2,54.2,29.17,WNW,292,3.1,4.0,57,0.00,,---,0.00,VWS V14.01,2013-08-16 14:31:00,
2013-08-16 09:36:00,70.3,53.4,29.17,WNW,292,0.0,3.1,55,0.00,,---,0.00,VWS V14.01,2013-08-16 14:36:00,
2013-08-16 09:41:00,71.1,54.1,29.17,WNW,292,0.0,2.7,55,0.00,,---,0.00,VWS V14.01,2013-08-16 14:41:00,
2013-08-16 09:46:00,71.4,54.4,29.20,WNW,292,0.0,0.0,55,0.00,,---,0.00,VWS V14.01,2013-08-16 14:46:00,
2013-08-16 09:51:00,71.4,54.4,29.20,WNW,292,0.0,0.0,55,0.00,,---,0.00,VWS V14.01,2013-08-16 14:51:00,
2013-08-16 09:56:00,73.0,53.9,29.20,WNW,292,3.6,4.0,51,0.00,,---,0.00,VWS V14.01,2013-08-16 14:56:00,
2013-08-16 10:01:00,73.2,53.5,29.20,WNW,292,2.7,4.0,50,0.00,,---,0.00,VWS V14.01,2013-08-16 15:01:00,
2013-08-16 10:06:00,73.4,53.1,29.20,WNW,292,2.7,3.6,49,0.00,,---,0.00,VWS V14.01,2013-08-16 15:06:00,
2013-08-16 10:11:00,73.8,52.3,29.20,WNW,292,4.0,4.5,47,0.00,,---,0.00,VWS V14.01,2013-08-16 15:11:00,
2013-08-16 10:16:00,73.4,51.4,29.17,WNW,292,3.1,3.1,46,0.00,,---,0.00,VWS V14.01,2013-08-16 15:16:00,
2013-08-16 10:21:00,73.6,52.1,29.17,WNW,292,2.2,2.7,47,0.00,,---,0.00,VWS V14.01,2013-08-16 15:21:00,
2013-08-16 10:26:00,73.8,51.7,29.17,WNW,292,2.7,4.0,46,0.00,,---,0.00,VWS V14.01,2013-08-16 15:26:00,
2013-08-16 10:31:00,74.7,51.9,29.20,WNW,292,0.0,2.2,45,0.00,,---,0.00,VWS V14.01,2013-08-16 15:31:00,
2013-08-16 10:36:00,74.7,51.3,29.20,WNW,292,3.1,3.1,44,0.00,,---,0.00,VWS V14.01,2013-08-16 15:36:00,
2013-08-16 10:41:00,73.9,50.7,29.20,WNW,292,3.1,3.6,44,0.00,,---,0.00,VWS V14.01,2013-08-16 15:41:00,
2013-08-16 10:46:00,74.3,51.6,29.20,WNW,292,0.0,2.7,45,0.00,,---,0.00,VWS V14.01,2013-08-16 15:46:00,
2013-08-16 10:51:00,74.3,51.6,29.20,WNW,292,2.2,2.2,45,0.00,,---,0.00,VWS V14.01,2013-08-16 15:51:00,
2013-08-16 10:56:00,75.0,51.0,29.20,ESE,112,2.7,4.0,43,0.00,,---,0.00,VWS V14.01,2013-08-16 15:56:00,
2013-08-16 11:01:00,75.9,51.8,29.17,ESE,112,2.7,2.7,43,0.00,,---,0.00,VWS V14.01,2013-08-16 16:01:00,
2013-08-16 11:06:00,75.4,51.3,29.17,West,270,3.6,4.9,43,0.00,,---,0.00,VWS V14.01,2013-08-16 16:06:00,
2013-08-16 11:11:00,75.4,50.7,29.17,WNW,292,3.1,3.6,42,0.00,,---,0.00,VWS V14.01,2013-08-16 16:11:00,
2013-08-16 11:16:00,75.4,50.7,29.20,WNW,292,0.0,0.0,42,0.00,,---,0.00,VWS V14.01,2013-08-16 16:16:00,
2013-08-16 11:21:00,76.5,51.7,29.20,WNW,292,4.9,5.8,42,0.00,,---,0.00,VWS V14.01,2013-08-16 16:21:00,
2013-08-16 11:26:00,76.6,51.8,29.20,WNW,292,0.0,0.0,42,0.00,,---,0.00,VWS V14.01,2013-08-16 16:26:00,
2013-08-16 11:31:00,77.0,51.5,29.20,SSE,158,3.1,4.5,41,0.00,,---,0.00,VWS V14.01,2013-08-16 16:31:00,
2013-08-16 11:36:00,76.1,50.0,29.20,WNW,292,4.0,5.4,40,0.00,,---,0.00,VWS V14.01,2013-08-16 16:36:00,
2013-08-16 11:41:00,76.3,50.2,29.20,WNW,292,0.0,4.0,40,0.00,,---,0.00,VWS V14.01,2013-08-16 16:41:00,
2013-08-16 11:46:00,77.0,50.9,29.17,WNW,292,5.4,5.4,40,0.00,,---,0.00,VWS V14.01,2013-08-16 16:46:00,
2013-08-16 11:51:00,78.1,51.1,29.17,WNW,292,3.6,5.4,39,0.00,,---,0.00,VWS V14.01,2013-08-16 16:51:00,
2013-08-16 11:56:00,78.1,50.4,29.17,WNW,292,2.7,4.9,38,0.00,,---,0.00,VWS V14.01,2013-08-16 16:56:00,
2013-08-16 12:01:00,78.8,51.8,29.17,WNW,292,4.0,5.4,39,0.00,,---,0.00,VWS V14.01,2013-08-16 17:01:00,
2013-08-16 12:06:00,77.0,48.8,29.17,WNW,292,4.0,4.9,37,0.00,,---,0.00,VWS V14.01,2013-08-16 17:06:00,
2013-08-16 12:11:00,77.2,48.2,29.17,WNW,292,6.3,6.7,36,0.00,,---,0.00,VWS V14.01,2013-08-16 17:11:00,
2013-08-16 12:16:00,78.1,48.2,29.17,WSW,248,0.0,4.0,35,0.00,,---,0.00,VWS V14.01,2013-08-16 17:16:00,
2013-08-16 12:21:00,79.9,50.6,29.17,South,180,2.7,4.0,36,0.00,,---,0.00,VWS V14.01,2013-08-16 17:21:00,
2013-08-16 12:26:00,81.5,50.5,29.17,South,180,0.0,4.0,34,0.00,,---,0.00,VWS V14.01,2013-08-16 17:26:00,
2013-08-16 12:31:00,81.3,50.3,29.17,SSE,158,3.6,4.0,34,0.00,,---,0.00,VWS V14.01,2013-08-16 17:31:00,
2013-08-16 12:36:00,80.8,49.8,29.17,WNW,292,4.5,5.4,34,0.00,,---,0.00,VWS V14.01,2013-08-16 17:36:00,
2013-08-16 12:41:00,79.5,48.7,29.17,WNW,292,4.0,4.5,34,0.00,,---,0.00,VWS V14.01,2013-08-16 17:41:00,
2013-08-16 12:46:00,77.5,48.5,29.17,WNW,292,3.1,3.1,36,0.00,,---,0.00,VWS V14.01,2013-08-16 17:46:00,
2013-08-16 12:51:00,80.1,50.7,29.17,WNW,292,4.0,5.8,36,0.00,,---,0.00,VWS V14.01,2013-08-16 17:51:00,
2013-08-16 12:56:00,79.0,48.2,29.17,WNW,292,3.6,4.9,34,0.00,,---,0.00,VWS V14.01,2013-08-16 17:56:00,
2013-08-16 13:01:00,80.2,49.3,29.17,West,270,2.7,3.1,34,0.00,,---,0.00,VWS V14.01,2013-08-16 18:01:00,
2013-08-16 13:06:00,80.8,49.0,29.17,WNW,292,3.6,5.8,33,0.00,,---,0.00,VWS V14.01,2013-08-16 18:06:00,
2013-08-16 13:11:00,81.7,49.8,29.17,ENE,68,3.6,5.4,33,0.00,,---,0.00,VWS V14.01,2013-08-16 18:11:00,
2013-08-16 13:16:00,81.7,49.0,29.17,West,270,3.1,3.6,32,0.00,,---,0.00,VWS V14.01,2013-08-16 18:16:00,
2013-08-16 13:21:00,81.7,49.0,29.17,WNW,292,3.6,6.3,32,0.00,,---,0.00,VWS V14.01,2013-08-16 18:21:00,
2013-08-16 13:26:00,82.0,49.3,29.17,East,90,3.1,6.7,32,0.00,,---,0.00,VWS V14.01,2013-08-16 18:26:00,
2013-08-16 13:31:00,81.1,48.5,29.17,WNW,292,2.7,5.8,32,0.00,,---,0.00,VWS V14.01,2013-08-16 18:31:00,
2013-08-16 13:36:00,78.4,47.0,29.17,WNW,292,3.1,7.6,33,0.00,,---,0.00,VWS V14.01,2013-08-16 18:36:00,
2013-08-16 13:41:00,78.1,47.5,29.17,WNW,292,3.1,5.4,34,0.00,,---,0.00,VWS V14.01,2013-08-16 18:41:00,
2013-08-16 13:46:00,78.4,48.5,29.17,WNW,292,4.0,4.9,35,0.00,,---,0.00,VWS V14.01,2013-08-16 18:46:00,
2013-08-16 13:51:00,78.6,48.7,29.17,WNW,292,2.7,4.0,35,0.00,,---,0.00,VWS V14.01,2013-08-16 18:51:00,
2013-08-16 13:56:00,81.0,49.2,29.17,WNW,292,5.4,5.4,33,0.00,,---,0.00,VWS V14.01,2013-08-16 18:56:00,
2013-08-16 14:01:00,80.6,48.9,29.17,WNW,292,4.0,5.4,33,0.00,,---,0.00,VWS V14.01,2013-08-16 19:01:00,
2013-08-16 14:06:00,82.0,50.1,29.17,WNW,292,5.8,5.8,33,0.00,,---,0.00,VWS V14.01,2013-08-16 19:06:00,
2013-08-16 14:11:00,83.5,50.5,29.17,WNW,292,4.9,4.9,32,0.00,,---,0.00,VWS V14.01,2013-08-16 19:11:00,
2013-08-16 14:16:00,82.2,49.5,29.17,WNW,292,7.2,7.2,32,0.00,,---,0.00,VWS V14.01,2013-08-16 19:16:00,
2013-08-16 14:21:00,82.0,49.3,29.17,WNW,292,2.7,2.7,32,0.00,,---,0.00,VWS V14.01,2013-08-16 19:21:00,
2013-08-16 14:26:00,82.2,48.6,29.17,WNW,292,3.6,4.9,31,0.00,,---,0.00,VWS V14.01,2013-08-16 19:26:00,
2013-08-16 14:31:00,80.8,48.2,29.17,WNW,292,4.0,4.0,32,0.00,,---,0.00,VWS V14.01,2013-08-16 19:31:00,
2013-08-16 14:36:00,79.9,48.2,29.17,WNW,292,3.6,3.6,33,0.00,,---,0.00,VWS V14.01,2013-08-16 19:36:00,
2013-08-16 14:41:00,80.2,48.5,29.17,WNW,292,2.7,2.7,33,0.00,,---,0.00,VWS V14.01,2013-08-16 19:41:00,
2013-08-16 14:46:00,80.4,49.5,29.17,ESE,112,0.0,4.5,34,0.00,,---,0.00,VWS V14.01,2013-08-16 19:46:00,
2013-08-16 14:51:00,80.6,48.9,29.17,ESE,112,4.0,4.0,33,0.00,,---,0.00,VWS V14.01,2013-08-16 19:51:00,
2013-08-16 14:56:00,79.3,47.8,29.17,WNW,292,4.0,4.9,33,0.00,,---,0.00,VWS V14.01,2013-08-16 19:56:00,
2013-08-16 15:01:00,79.5,47.9,29.17,West,270,4.0,7.6,33,0.00,,---,0.00,VWS V14.01,2013-08-16 20:01:00,
2013-08-16 15:06:00,79.3,47.8,29.17,West,270,4.9,4.9,33,0.00,,---,0.00,VWS V14.01,2013-08-16 20:06:00,
2013-08-16 15:11:00,79.9,48.2,29.17,West,270,0.0,0.0,33,0.00,,---,0.00,VWS V14.01,2013-08-16 20:11:00,
2013-08-16 15:16:00,80.6,48.0,29.17,West,270,0.0,3.1,32,0.00,,---,0.00,VWS V14.01,2013-08-16 20:16:00,
2013-08-16 15:21:00,81.9,49.1,29.17,ESE,112,3.1,3.6,32,0.00,,---,0.00,VWS V14.01,2013-08-16 20:21:00,
2013-08-16 15:26:00,82.9,49.2,29.14,East,90,0.0,2.7,31,0.00,,---,0.00,VWS V14.01,2013-08-16 20:26:00,
2013-08-16 15:31:00,81.5,48.0,29.14,North,0,2.7,3.1,31,0.00,,---,0.00,VWS V14.01,2013-08-16 20:31:00,
2013-08-16 15:36:00,80.4,48.7,29.14,WNW,292,2.7,4.0,33,0.00,,---,0.00,VWS V14.01,2013-08-16 20:36:00,
2013-08-16 15:41:00,80.4,48.7,29.14,WNW,292,0.0,3.6,33,0.00,,---,0.00,VWS V14.01,2013-08-16 20:41:00,
2013-08-16 15:46:00,82.0,49.3,29.14,WNW,292,2.7,4.0,32,0.00,,---,0.00,VWS V14.01,2013-08-16 20:46:00,
2013-08-16 15:51:00,83.8,50.9,29.14,WNW,292,4.9,4.9,32,0.00,,---,0.00,VWS V14.01,2013-08-16 20:51:00,
2013-08-16 15:56:00,83.7,49.8,29.14,WNW,292,4.9,5.4,31,0.00,,---,0.00,VWS V14.01,2013-08-16 20:56:00,
2013-08-16 16:01:00,84.2,49.4,29.14,WNW,292,2.2,3.1,30,0.00,,---,0.00,VWS V14.01,2013-08-16 21:01:00,
2013-08-16 16:06:00,84.2,49.4,29.14,WNW,292,2.7,5.4,30,0.00,,---,0.00,VWS V14.01,2013-08-16 21:06:00,
2013-08-16 16:11:00,84.2,49.4,29.17,ESE,112,4.0,5.8,30,0.00,,---,0.00,VWS V14.01,2013-08-16 21:11:00,
2013-08-16 16:16:00,83.7,49.0,29.17,NNE,22,3.1,3.1,30,0.00,,---,0.00,VWS V14.01,2013-08-16 21:16:00,
2013-08-16 16:21:00,84.6,49.8,29.17,WNW,292,5.8,5.8,30,0.00,,---,0.00,VWS V14.01,2013-08-16 21:21:00,
2013-08-16 16:26:00,82.4,47.9,29.17,WNW,292,4.0,4.0,30,0.00,,---,0.00,VWS V14.01,2013-08-16 21:26:00,
2013-08-16 16:32:00,82.2,48.6,29.17,West,270,3.1,4.0,31,0.00,,---,0.00,VWS V14.01,2013-08-16 21:32:00,
2013-08-16 16:37:00,83.7,49.8,29.17,WNW,292,4.0,5.4,31,0.00,,---,0.00,VWS V14.01,2013-08-16 21:37:00,
2013-08-16 16:42:00,82.9,49.2,29.14,West,270,5.4,5.4,31,0.00,,---,0.00,VWS V14.01,2013-08-16 21:42:00,
2013-08-16 16:47:00,82.0,48.5,29.14,West,270,3.1,5.4,31,0.00,,---,0.00,VWS V14.01,2013-08-16 21:47:00,
2013-08-16 16:52:00,82.0,48.5,29.14,West,270,2.2,6.3,31,0.00,,---,0.00,VWS V14.01,2013-08-16 21:52:00,
2013-08-16 16:57:00,83.3,48.7,29.17,WNW,292,4.0,5.8,30,0.00,,---,0.00,VWS V14.01,2013-08-16 21:57:00,
2013-08-16 17:02:00,83.8,49.1,29.17,NNE,22,3.1,3.1,30,0.00,,---,0.00,VWS V14.01,2013-08-16 22:02:00,
2013-08-16 17:07:00,83.8,49.1,29.17,WNW,292,7.2,7.2,30,0.00,,---,0.00,VWS V14.01,2013-08-16 22:07:00,
2013-08-16 17:12:00,83.3,48.7,29.14,WNW,292,4.0,4.9,30,0.00,,---,0.00,VWS V14.01,2013-08-16 22:12:00,
2013-08-16 17:17:00,84.4,49.6,29.14,NNW,338,0.0,3.1,30,0.00,,---,0.00,VWS V14.01,2013-08-16 22:17:00,
2013-08-16 17:22:00,82.4,48.8,29.14,WNW,292,3.1,5.4,31,0.00,,---,0.00,VWS V14.01,2013-08-16 22:22:00,
2013-08-16 17:27:00,82.6,48.9,29.17,WNW,292,4.0,5.8,31,0.00,,---,0.00,VWS V14.01,2013-08-16 22:27:00,
2013-08-16 17:32:00,82.8,49.1,29.17,WNW,292,3.1,4.0,31,0.00,,---,0.00,VWS V14.01,2013-08-16 22:32:00,
2013-08-16 17:37:00,82.6,48.9,29.17,WNW,292,4.5,4.5,31,0.00,,---,0.00,VWS V14.01,2013-08-16 22:37:00,
2013-08-16 17:42:00,81.9,48.3,29.14,WNW,292,2.7,4.9,31,0.00,,---,0.00,VWS V14.01,2013-08-16 22:42:00,
2013-08-16 17:47:00,82.8,49.1,29.14,WNW,292,3.6,3.6,31,0.00,,---,0.00,VWS V14.01,2013-08-16 22:47:00,
2013-08-16 17:52:00,82.4,48.8,29.14,WNW,292,3.1,3.6,31,0.00,,---,0.00,VWS V14.01,2013-08-16 22:52:00,
2013-08-16 17:57:00,82.8,49.1,29.17,WNW,292,3.6,3.6,31,0.00,,---,0.00,VWS V14.01,2013-08-16 22:57:00,
2013-08-16 18:02:00,82.6,48.9,29.17,West,270,3.1,3.6,31,0.00,,---,0.00,VWS V14.01,2013-08-16 23:02:00,
2013-08-16 18:07:00,81.9,48.3,29.17,WNW,292,5.4,5.4,31,0.00,,---,0.00,VWS V14.01,2013-08-16 23:07:00,
2013-08-16 18:12:00,81.7,48.1,29.14,WNW,292,3.1,5.8,31,0.00,,---,0.00,VWS V14.01,2013-08-16 23:12:00,
2013-08-16 18:17:00,81.3,48.7,29.14,West,270,6.3,6.7,32,0.00,,---,0.00,VWS V14.01,2013-08-16 23:17:00,
2013-08-16 18:22:00,81.1,47.7,29.14,West,270,3.1,4.5,31,0.00,,---,0.00,VWS V14.01,2013-08-16 23:22:00,
2013-08-16 18:27:00,81.1,48.5,29.17,WNW,292,4.0,4.0,32,0.00,,---,0.00,VWS V14.01,2013-08-16 23:27:00,
2013-08-16 18:32:00,81.1,48.5,29.17,WNW,292,3.1,4.0,32,0.00,,---,0.00,VWS V14.01,2013-08-16 23:32:00,
2013-08-16 18:37:00,81.1,48.5,29.17,WNW,292,3.1,3.6,32,0.00,,---,0.00,VWS V14.01,2013-08-16 23:37:00,
2013-08-16 18:42:00,80.8,48.2,29.14,WNW,292,2.7,4.9,32,0.00,,---,0.00,VWS V14.01,2013-08-16 23:42:00,
2013-08-16 18:47:00,80.8,48.2,29.14,WNW,292,3.6,3.6,32,0.00,,---,0.00,VWS V14.01,2013-08-16 23:47:00,
2013-08-16 18:52:00,80.6,48.0,29.14,WNW,292,2.7,4.0,32,0.00,,---,0.00,VWS V14.01,2013-08-16 23:52:00,
2013-08-16 18:57:00,79.9,48.2,29.14,WNW,292,3.6,4.0,33,0.00,,---,0.00,VWS V14.01,2013-08-16 23:57:00,
2013-08-16 19:02:00,79.2,47.6,29.14,WNW,292,3.1,4.0,33,0.00,,---,0.00,VWS V14.01,2013-08-17 00:02:00,
2013-08-16 19:07:00,78.8,48.1,29.14,WNW,292,4.0,5.8,34,0.00,,---,0.00,VWS V14.01,2013-08-17 00:07:00,
2013-08-16 19:12:00,78.6,48.7,29.17,WNW,292,2.7,3.1,35,0.00,,---,0.00,VWS V14.01,2013-08-17 00:12:00,
2013-08-16 19:17:00,78.1,48.2,29.17,WNW,292,3.1,4.0,35,0.00,,---,0.00,VWS V14.01,2013-08-17 00:17:00,
2013-08-16 19:22:00,77.9,48.8,29.17,WNW,292,2.7,2.7,36,0.00,,---,0.00,VWS V14.01,2013-08-17 00:22:00,
2013-08-16 19:27:00,77.5,48.5,29.17,WNW,292,3.1,3.6,36,0.00,,---,0.00,VWS V14.01,2013-08-17 00:27:00,
2013-08-16 19:32:00,77.0,48.8,29.17,WNW,292,2.7,3.6,37,0.00,,---,0.00,VWS V14.01,2013-08-17 00:32:00,
2013-08-16 19:37:00,76.6,49.2,29.17,WNW,292,2.7,2.7,38,0.00,,---,0.00,VWS V14.01,2013-08-17 00:37:00,
2013-08-16 19:42:00,76.3,49.5,29.17,WNW,292,2.7,3.1,39,0.00,,---,0.00,VWS V14.01,2013-08-17 00:42:00,
2013-08-16 19:47:00,75.7,49.7,29.17,WNW,292,0.0,0.0,40,0.00,,---,0.00,VWS V14.01,2013-08-17 00:47:00,
2013-08-16 19:52:00,74.7,50.1,29.17,WNW,292,0.0,0.0,42,0.00,,---,0.00,VWS V14.01,2013-08-17 00:52:00,
2013-08-16 19:57:00,74.1,50.2,29.17,WNW,292,0.0,0.0,43,0.00,,---,0.00,VWS V14.01,2013-08-17 00:57:00,
2013-08-16 20:02:00,73.2,50.0,29.17,WNW,292,0.0,0.0,44,0.00,,---,0.00,VWS V14.01,2013-08-17 01:02:00,
2013-08-16 20:07:00,72.9,50.3,29.17,WNW,292,0.0,0.0,45,0.00,,---,0.00,VWS V14.01,2013-08-17 01:07:00,
2013-08-16 20:12:00,72.5,50.6,29.17,WNW,292,0.0,0.0,46,0.00,,---,0.00,VWS V14.01,2013-08-17 01:12:00,
2013-08-16 20:17:00,72.0,50.1,29.17,WNW,292,0.0,0.0,46,0.00,,---,0.00,VWS V14.01,2013-08-17 01:17:00,
2013-08-16 20:22:00,71.2,50.6,29.17,WNW,292,0.0,0.0,48,0.00,,---,0.00,VWS V14.01,2013-08-17 01:22:00,
2013-08-16 20:27:00,70.7,50.6,29.17,WNW,292,0.0,0.0,49,0.00,,---,0.00,VWS V14.01,2013-08-17 01:27:00,
2013-08-16 20:32:00,69.8,50.9,29.17,WNW,292,0.0,0.0,51,0.00,,---,0.00,VWS V14.01,2013-08-17 01:32:00,
2013-08-16 20:37:00,69.4,51.1,29.17,WNW,292,0.0,0.0,52,0.00,,---,0.00,VWS V14.01,2013-08-17 01:37:00,
2013-08-16 20:42:00,68.9,51.6,29.17,WNW,292,0.0,0.0,54,0.00,,---,0.00,VWS V14.01,2013-08-17 01:42:00,
2013-08-16 20:47:00,68.4,51.6,29.17,WNW,292,0.0,0.0,55,0.00,,---,0.00,VWS V14.01,2013-08-17 01:47:00,
2013-08-16 20:52:00,67.8,51.6,29.17,WNW,292,0.0,0.0,56,0.00,,---,0.00,VWS V14.01,2013-08-17 01:52:00,
2013-08-16 20:57:00,67.6,52.3,29.17,WNW,292,0.0,0.0,58,0.00,,---,0.00,VWS V14.01,2013-08-17 01:57:00,
2013-08-16 21:02:00,67.1,51.4,29.17,WNW,292,0.0,0.0,57,0.00,,---,0.00,VWS V14.01,2013-08-17 02:02:00,
2013-08-16 21:07:00,66.6,52.3,29.17,WNW,292,0.0,0.0,60,0.00,,---,0.00,VWS V14.01,2013-08-17 02:07:00,
2013-08-16 21:12:00,66.2,52.4,29.17,WNW,292,0.0,0.0,61,0.00,,---,0.00,VWS V14.01,2013-08-17 02:12:00,
2013-08-16 21:17:00,66.0,52.6,29.17,WNW,292,0.0,0.0,62,0.00,,---,0.00,VWS V14.01,2013-08-17 02:17:00,
2013-08-16 21:22:00,65.7,52.3,29.17,WNW,292,0.0,0.0,62,0.00,,---,0.00,VWS V14.01,2013-08-17 02:22:00,
2013-08-16 21:27:00,65.5,53.0,29.17,WNW,292,0.0,0.0,64,0.00,,---,0.00,VWS V14.01,2013-08-17 02:27:00,
2013-08-16 21:32:00,65.1,52.7,29.17,WNW,292,0.0,0.0,64,0.00,,---,0.00,VWS V14.01,2013-08-17 02:32:00,
2013-08-16 21:37:00,64.8,53.2,29.17,WNW,292,0.0,0.0,66,0.00,,---,0.00,VWS V14.01,2013-08-17 02:37:00,
2013-08-16 21:42:00,64.4,52.8,29.17,WNW,292,0.0,0.0,66,0.00,,---,0.00,VWS V14.01,2013-08-17 02:42:00,
2013-08-16 21:47:00,64.2,53.0,29.17,WNW,292,0.0,0.0,67,0.00,,---,0.00,VWS V14.01,2013-08-17 02:47:00,
2013-08-16 21:52:00,64.2,53.5,29.17,WNW,292,0.0,0.0,68,0.00,,---,0.00,VWS V14.01,2013-08-17 02:52:00,
2013-08-16 21:57:00,64.2,53.8,29.17,WNW,292,0.0,0.0,69,0.00,,---,0.00,VWS V14.01,2013-08-17 02:57:00,
2013-08-16 22:02:00,64.0,53.7,29.17,WNW,292,0.0,0.0,69,0.00,,---,0.00,VWS V14.01,2013-08-17 03:02:00,
2013-08-16 22:07:00,63.7,53.3,29.17,WNW,292,0.0,0.0,69,0.00,,---,0.00,VWS V14.01,2013-08-17 03:07:00,
2013-08-16 22:12:00,63.5,53.5,29.17,WNW,292,0.0,0.0,70,0.00,,---,0.00,VWS V14.01,2013-08-17 03:12:00,
2013-08-16 22:17:00,63.1,53.6,29.17,WNW,292,0.0,0.0,71,0.00,,---,0.00,VWS V14.01,2013-08-17 03:17:00,
2013-08-16 22:22:00,63.0,53.8,29.17,WNW,292,0.0,0.0,72,0.00,,---,0.00,VWS V14.01,2013-08-17 03:22:00,
2013-08-16 22:27:00,62.6,53.5,29.17,WNW,292,0.0,0.0,72,0.00,,---,0.00,VWS V14.01,2013-08-17 03:27:00,
2013-08-16 22:32:00,62.4,53.7,29.17,WNW,292,0.0,0.0,73,0.00,,---,0.00,VWS V14.01,2013-08-17 03:32:00,
2013-08-16 22:37:00,62.2,53.9,29.17,WNW,292,0.0,0.0,74,0.00,,---,0.00,VWS V14.01,2013-08-17 03:37:00,
2013-08-16 22:42:00,62.2,54.2,29.17,WNW,292,0.0,0.0,75,0.00,,---,0.00,VWS V14.01,2013-08-17 03:42:00,
2013-08-16 22:47:00,61.9,53.5,29.17,WNW,292,0.0,0.0,74,0.00,,---,0.00,VWS V14.01,2013-08-17 03:47:00,
2013-08-16 22:53:00,61.5,53.5,29.17,WNW,292,0.0,0.0,75,0.00,,---,0.00,VWS V14.01,2013-08-17 03:53:00,
2013-08-16 22:58:00,61.5,54.2,29.17,WNW,292,0.0,0.0,77,0.00,,---,0.00,VWS V14.01,2013-08-17 03:58:00,
2013-08-16 23:01:00,61.3,54.1,29.17,WNW,292,0.0,0.0,77,0.00,,---,0.00,VWS V14.01,2013-08-17 04:01:00,
2013-08-16 23:02:00,61.3,54.1,29.17,WNW,292,0.0,0.0,77,0.00,,---,0.00,VWS V14.01,2013-08-17 04:02:00,
2013-08-16 23:04:00,61.2,53.9,29.17,WNW,292,0.0,0.0,77,0.00,,---,0.00,VWS V14.01,2013-08-17 04:04:00,
2013-08-16 23:09:00,61.0,53.7,29.17,WNW,292,0.0,0.0,77,0.00,,---,0.00,VWS V14.01,2013-08-17 04:09:00,
2013-08-16 23:14:00,60.8,53.9,29.17,WNW,292,0.0,0.0,78,0.00,,---,0.00,VWS V14.01,2013-08-17 04:14:00,
2013-08-16 23:19:00,60.6,54.4,29.17,WNW,292,0.0,0.0,80,0.00,,---,0.00,VWS V14.01,2013-08-17 04:19:00,
2013-08-16 23:24:00,60.6,54.4,29.17,WNW,292,0.0,0.0,80,0.00,,---,0.00,VWS V14.01,2013-08-17 04:24:00,
2013-08-16 23:29:00,60.6,54.4,29.17,WNW,292,0.0,0.0,80,0.00,,---,0.00,VWS V14.01,2013-08-17 04:29:00,
2013-08-16 23:34:00,60.4,54.2,29.17,WNW,292,0.0,0.0,80,0.00,,---,0.00,VWS V14.01,2013-08-17 04:34:00,
2013-08-16 23:39:00,60.4,54.6,29.17,WNW,292,0.0,0.0,81,0.00,,---,0.00,VWS V14.01,2013-08-17 04:39:00,
2013-08-16 23:44:00,60.3,54.4,29.20,WNW,292,0.0,0.0,81,0.00,,---,0.00,VWS V14.01,2013-08-17 04:44:00,
2013-08-16 23:49:00,60.1,54.6,29.20,WNW,292,0.0,0.0,82,0.00,,---,0.00,VWS V14.01,2013-08-17 04:49:00,
2013-08-16 23:54:00,59.7,53.9,29.20,WNW,292,0.0,0.0,81,0.00,,---,0.00,VWS V14.01,2013-08-17 04:54:00,
2013-08-16 23:59:00,59.4,53.9,29.20,WNW,292,0.0,0.0,82,0.00,,---,0.00,VWS V14.01,2013-08-17 04:59:00,